H1 CPF 2 NER 2021 12 29 9 363 01 glonass143 H2 2007501 9143 46805 2021 12 29 0 0 0 2022 1 1 23 45 0 900 1 1 0 0 0 1 H9 10 0 59577 0.00000 0 17166857.551 -15766996.332 10360275.483 10 0 59577 900.00000 0 18017442.496 -16470249.954 7394624.189 10 0 59577 1800.00000 0 18513147.751 -17012407.418 4285294.357 10 0 59577 2700.00000 0 18671116.160 -17339680.643 1092688.929 10 0 59577 3600.00000 0 18520271.596 -17404570.000 -2121151.470 10 0 59577 4500.00000 0 18099914.583 -17168043.902 -5293757.587 10 0 59577 5400.00000 0 17457895.020 -16601377.002 -8363450.265 10 0 59577 6300.00000 0 16648439.683 -15687568.225 -11270544.471 10 0 59577 7200.00000 0 15729726.913 -14422277.658 -13958514.506 10 0 59577 8100.00000 0 14761311.522 -12814241.569 -16375097.158 10 0 59577 9000.00000 0 13801509.238 -10885146.923 -18473310.954 10 0 59577 9900.00000 0 12904851.540 -8668969.634 -20212371.351 10 0 59577 10800.00000 0 12119718.574 -6210803.324 -21558484.115 10 0 59577 11700.00000 0 11486250.075 -3565226.683 -22485501.587 10 0 59577 12600.00000 0 11034622.313 -794276.962 -22975429.346 10 0 59577 13500.00000 0 10783763.418 2034886.648 -23018773.795 10 0 59577 14400.00000 0 10740560.903 4852533.085 -22614724.263 10 0 59577 15300.00000 0 10899594.377 7589017.387 -21771166.343 10 0 59577 16200.00000 0 11243404.306 10177436.702 -20504526.439 10 0 59577 17100.00000 0 11743285.183 12556174.574 -18839450.549 10 0 59577 18000.00000 0 12360569.344 14671228.286 -16808323.527 10 0 59577 18900.00000 0 13048347.053 16478223.217 -14450638.074 10 0 59577 19800.00000 0 13753550.097 17944031.115 -11812225.534 10 0 59577 20700.00000 0 14419310.710 19047925.662 -8944363.488 10 0 59577 21600.00000 0 14987496.028 19782228.139 -5902777.423 10 0 59577 22500.00000 0 15401310.779 20152417.299 -2746556.004 10 0 59577 23400.00000 0 15607857.950 20176700.021 462998.666 10 0 59577 24300.00000 0 15560548.975 19885062.027 3663563.193 10 0 59577 25200.00000 0 15221261.288 19317839.704 6793003.960 10 0 59577 26100.00000 0 14562151.803 18523874.192 9790583.232 10 0 59577 27000.00000 0 13567049.434 17558326.313 12598136.693 10 0 59577 27900.00000 0 12232367.485 16480244.971 15161199.574 10 0 59577 28800.00000 0 10567496.994 15349991.752 17430059.581 10 0 59577 29700.00000 0 8594663.832 14226630.212 19360716.609 10 0 59577 30600.00000 0 6348254.664 13165389.451 20915731.157 10 0 59577 31500.00000 0 3873639.046 12215308.206 22064945.603 10 0 59577 32400.00000 0 1225535.670 11417157.885 22786065.054 10 0 59577 33300.00000 0 -1534010.457 10801731.107 23065087.123 10 0 59577 34200.00000 0 -4337956.993 10388567.017 22896572.751 10 0 59577 35100.00000 0 -7116804.012 10185166.373 22283753.059 10 0 59577 36000.00000 0 -9801240.372 10186729.034 21238470.123 10 0 59577 36900.00000 0 -12324787.988 10376424.789 19780952.482 10 0 59577 37800.00000 0 -14626335.242 10726186.225 17939429.210 10 0 59577 38700.00000 0 -16652455.148 11197990.546 15749589.200 10 0 59577 39600.00000 0 -18359412.377 11745576.770 13253895.417 10 0 59577 40500.00000 0 -19714776.043 12316526.253 10500766.566 10 0 59577 41400.00000 0 -20698571.238 12854619.075 7543641.345 10 0 59577 42300.00000 0 -21303921.358 13302366.844 4439943.059 10 0 59577 43200.00000 0 -21537154.526 13603614.760 1249964.465 10 0 59577 44100.00000 0 -21417369.899 13706102.451 -1964305.439 10 0 59577 45000.00000 0 -20975482.324 13563874.618 -5140389.448 10 0 59577 45900.00000 0 -20252786.013 13139438.567 -8216541.017 10 0 59577 46800.00000 0 -19299098.190 12405576.349 -11132949.643 10 0 59577 47700.00000 0 -18170561.551 11346733.705 -13832908.536 10 0 59577 48600.00000 0 -16927198.742 9959925.980 -16263921.343 10 0 59577 49500.00000 0 -15630322.503 8255121.528 -18378725.969 10 0 59577 50400.00000 0 -14339911.062 6255085.304 -20136215.264 10 0 59577 51300.00000 0 -13112059.609 3994688.089 -21502236.689 10 0 59577 52200.00000 0 -11996615.185 1519709.164 -22450255.575 10 0 59577 53100.00000 0 -11035094.431 -1114818.330 -22961869.311 10 0 59577 54000.00000 0 -10258971.385 -3846651.181 -23027162.856 10 0 59577 54900.00000 0 -9688406.829 -6608684.631 -22644899.025 10 0 59577 55800.00000 0 -9331471.989 -9331508.460 -21822540.111 10 0 59577 56700.00000 0 -9183898.527 -11946064.966 -20576100.631 10 0 59577 57600.00000 0 -9229364.612 -14386298.871 -18929834.125 10 0 59577 58500.00000 0 -9440304.349 -16591689.432 -16915760.058 10 0 59577 59400.00000 0 -9779205.797 -18509559.987 -14573039.915 10 0 59577 60300.00000 0 -10200342.278 -20097069.334 -11947214.490 10 0 59577 61200.00000 0 -10651863.373 -21322802.522 -9089317.123 10 0 59577 62100.00000 0 -11078156.830 -22167895.402 -6054880.144 10 0 59577 63000.00000 0 -11422381.112 -22626646.786 -2902853.881 10 0 59577 63900.00000 0 -11629061.108 -22706593.465 305540.421 10 0 59577 64800.00000 0 -11646636.821 -22428045.999 3508001.239 10 0 59577 65700.00000 0 -11429856.876 -21823105.774 6642357.498 10 0 59577 66600.00000 0 -10941915.293 -20934205.595 9647775.470 10 0 59577 67500.00000 0 -10156240.855 -19812236.032 12465938.264 10 0 59577 68400.00000 0 -9057863.115 -18514336.948 15042174.965 10 0 59577 69300.00000 0 -7644296.952 -17101447.465 17326517.594 10 0 59577 70200.00000 0 -5925907.823 -15635717.471 19274665.784 10 0 59577 71100.00000 0 -3925741.503 -14177889.193 20848841.002 10 0 59577 72000.00000 0 -1678824.513 -12784758.334 22018514.353 10 0 59577 72900.00000 0 769036.700 -11506820.635 22760994.558 10 0 59577 73800.00000 0 3362909.069 -10386201.695 23061865.349 10 0 59577 74700.00000 0 6040771.156 -9454956.037 22915264.231 10 0 59577 75600.00000 0 8735853.000 -8733805.864 22323997.478 10 0 59577 76500.00000 0 11379181.759 -8231371.673 21299489.086 10 0 59577 77400.00000 0 13902228.517 -7943926.504 19861564.357 10 0 59577 78300.00000 0 16239547.481 -7855683.796 18038071.769 10 0 59577 79200.00000 0 18331298.659 -7939606.583 15864349.673 10 0 59577 80100.00000 0 20125549.645 -8158704.037 13382547.381 10 0 59577 81000.00000 0 21580260.997 -8467760.769 10640812.980 10 0 59577 81900.00000 0 22664872.560 -8815426.038 7692362.927 10 0 59577 82800.00000 0 23361424.426 -9146574.596 4594451.060 10 0 59577 83700.00000 0 23665165.583 -9404839.209 1407256.832 10 0 59577 84600.00000 0 23584624.743 -9535207.282 -1807285.615 10 0 59577 85500.00000 0 23141140.355 -9486571.093 -4986694.341 10 0 59578 0.00000 0 22367869.854 -9214122.858 -8069158.259 10 0 59578 900.00000 0 21308319.580 -8681492.046 -10994744.841 10 0 59578 1800.00000 0 20014458.775 -7862533.835 -13706568.530 10 0 59578 2700.00000 0 18544496.077 -6742691.392 -16151902.111 10 0 59578 3600.00000 0 16960413.535 -5319873.529 -18283204.797 10 0 59578 4500.00000 0 15325361.933 -3604809.428 -20059048.415 10 0 59578 5400.00000 0 13701027.272 -1620864.297 -21444923.375 10 0 59578 6300.00000 0 12145079.104 596677.483 -22413908.909 10 0 59578 7200.00000 0 10708807.820 3001832.698 -22947194.791 10 0 59578 8100.00000 0 9435049.640 5539593.107 -23034444.774 10 0 59578 9000.00000 0 8356485.781 8147983.746 -22673995.045 10 0 59578 9900.00000 0 7494386.449 10760420.591 -21872884.120 10 0 59578 10800.00000 0 6857851.414 13308270.120 -20646713.812 10 0 59578 11700.00000 0 6443578.076 15723504.774 -19019344.022 10 0 59578 12600.00000 0 6236165.757 17941344.203 -17022427.290 10 0 59578 13500.00000 0 6208942.431 19902772.787 -14694792.012 10 0 59578 14400.00000 0 6325278.084 21556828.930 -12081686.199 10 0 59578 15300.00000 0 6540328.514 22862571.025 -9233896.404 10 0 59578 16200.00000 0 6803135.127 23790638.474 -6206758.955 10 0 59578 17100.00000 0 7058991.332 24324343.074 -3059082.763 10 0 59578 18000.00000 0 7251974.852 24460245.689 147995.043 10 0 59578 18900.00000 0 7327538.265 24208194.801 3352198.136 10 0 59578 19800.00000 0 7235047.690 23590826.107 6491321.271 10 0 59578 20700.00000 0 6930161.807 22642544.985 9504437.901 10 0 59578 21600.00000 0 6376950.195 21408035.262 12333081.519 10 0 59578 22500.00000 0 5549661.098 19940357.540 14922377.753 10 0 59578 23400.00000 0 4434063.574 18298717.305 17222105.325 10 0 59578 24300.00000 0 3028306.910 16545996.628 19187665.662 10 0 59578 25200.00000 0 1343260.425 14746152.819 20780942.903 10 0 59578 26100.00000 0 -597681.481 12961592.659 21971038.208 10 0 59578 27000.00000 0 -2759321.951 11250631.483 22734864.848 10 0 59578 27900.00000 0 -5095883.098 9665142.582 23057593.177 10 0 59578 28800.00000 0 -7552676.569 8248494.316 22932937.301 10 0 59578 29700.00000 0 -10068155.146 7033860.211 22363278.180 10 0 59578 30600.00000 0 -12576261.452 6042971.749 21359620.730 10 0 59578 31500.00000 0 -15008977.312 5285365.277 19941385.471 10 0 59578 32400.00000 0 -17298968.949 4758153.861 18136038.227 10 0 59578 33300.00000 0 -19382218.849 4446333.142 15978564.261 10 0 59578 34200.00000 0 -21200535.303 4323608.028 13510796.294 10 0 59578 35100.00000 0 -22703835.382 4353705.176 10780608.572 10 0 59578 36000.00000 0 -23852106.164 4492115.784 7840991.903 10 0 59578 36900.00000 0 -24616962.072 4688194.962 4749027.206 10 0 59578 37800.00000 0 -24982732.909 4887528.666 1564777.222 10 0 59578 38700.00000 0 -24947036.714 5034467.663 -1649882.037 10 0 59578 39600.00000 0 -24520813.090 5074720.642 -4832467.001 10 0 59578 40500.00000 0 -23727815.496 4957895.909 -7921105.462 10 0 59578 41400.00000 0 -22603583.786 4639883.040 -10855744.415 10 0 59578 42300.00000 0 -21193940.348 4084972.664 -13579322.500 10 0 59578 43200.00000 0 -19553073.295 3267623.512 -16038883.741 10 0 59578 44100.00000 0 -17741287.583 2173800.890 -18186610.425 10 0 59578 45000.00000 0 -15822518.844 801828.916 -19980754.726 10 0 59578 45900.00000 0 -13861714.515 -837280.577 -21386450.937 10 0 59578 46800.00000 0 -11922192.180 -2720037.461 -22376392.674 10 0 59578 47700.00000 0 -10063085.753 -4811213.327 -22931362.110 10 0 59578 48600.00000 0 -8336986.123 -7065082.119 -23040601.360 10 0 59578 49500.00000 0 -6787874.433 -9427110.474 -22702019.131 10 0 59578 50400.00000 0 -5449433.771 -11836027.921 -21922228.930 10 0 59578 51300.00000 0 -4343808.946 -14226191.316 -20716418.290 10 0 59578 52200.00000 0 -3480865.171 -16530145.540 -19108051.613 10 0 59578 53100.00000 0 -2857975.566 -18681274.082 -17128412.397 10 0 59578 54000.00000 0 -2460345.122 -20616429.434 -14815993.652 10 0 59578 54900.00000 0 -2261856.253 -22278433.831 -12215748.172 10 0 59578 55800.00000 0 -2226399.204 -23618346.141 -9378213.217 10 0 59578 56700.00000 0 -2309630.109 -24597400.457 -6358526.583 10 0 59578 57600.00000 0 -2461081.472 -25188535.561 -3215353.249 10 0 59578 58500.00000 0 -2626535.063 -25377451.563 -9743.777 10 0 59578 59400.00000 0 -2750556.102 -25163149.864 3196053.107 10 0 59578 60300.00000 0 -2779080.864 -24557934.324 6339800.330 10 0 59578 61200.00000 0 -2661947.714 -23586874.118 9360480.801 10 0 59578 62100.00000 0 -2355264.069 -22286751.398 12199480.594 10 0 59578 63000.00000 0 -1823508.821 -20704538.336 14801723.983 10 0 59578 63900.00000 0 -1041281.078 -18895467.807 17116738.339 10 0 59578 64800.00000 0 5378.968 -16920778.645 19099628.639 10 0 59578 65700.00000 0 1318153.247 -14845229.783 20711943.200 10 0 59578 66600.00000 0 2886128.941 -12734486.881 21922414.446 10 0 59578 67500.00000 0 4686015.771 -10652490.061 22707561.075 10 0 59578 68400.00000 0 6682889.489 -8658911.779 23052140.592 10 0 59578 69300.00000 0 8831431.731 -6806810.005 22949443.878 10 0 59578 70200.00000 0 11077615.897 -5140573.559 22401426.402 10 0 59578 71100.00000 0 13360770.231 -3694244.210 21418673.498 10 0 59578 72000.00000 0 15615933.428 -2490284.665 20020200.090 10 0 59578 72900.00000 0 17776405.892 -1538842.994 18233088.229 10 0 59578 73800.00000 0 19776391.341 -837543.466 16091968.687 10 0 59578 74700.00000 0 21553619.252 -371812.009 13638355.894 10 0 59578 75600.00000 0 23051839.130 -115722.077 10919848.256 10 0 59578 76500.00000 0 24223082.483 -33324.911 7989208.648 10 0 59578 77400.00000 0 25029597.622 -80407.781 4903342.498 10 0 59578 78300.00000 0 25445375.932 -206605.549 1722193.025 10 0 59578 79200.00000 0 25457205.066 -357775.786 -1492424.879 10 0 59578 80100.00000 0 25065204.354 -478536.367 -4678029.082 10 0 59578 81000.00000 0 24282819.475 -514857.315 -7772689.051 10 0 59578 81900.00000 0 23136276.265 -416596.274 -10716234.781 10 0 59578 82800.00000 0 21663516.413 -139869.248 -13451431.545 10 0 59578 83700.00000 0 19912659.737 350844.755 -15925097.044 10 0 59578 84600.00000 0 17940057.623 1080955.299 -18089138.785 10 0 59578 85500.00000 0 15808019.484 2064443.210 -19901491.130 10 0 59579 0.00000 0 13582307.855 3303030.936 -21326933.704 10 0 59579 900.00000 0 11329505.805 4785877.252 -22337776.047 10 0 59579 1800.00000 0 9114369.810 6489808.438 -22914393.597 10 0 59579 2700.00000 0 6997274.399 8380079.392 -23045607.550 10 0 59579 3600.00000 0 5031857.835 10411632.093 -22728899.537 10 0 59579 4500.00000 0 3262965.257 12530800.141 -21970458.112 10 0 59579 5400.00000 0 1724974.469 14677388.736 -20785056.194 10 0 59579 6300.00000 0 440573.159 16787043.812 -19195761.946 10 0 59579 7200.00000 0 -579962.493 18793811.783 -17233488.678 10 0 59579 8100.00000 0 -1338959.025 20632783.341 -14936392.439 10 0 59579 9000.00000 0 -1851000.116 22242711.089 -12349128.831 10 0 59579 9900.00000 0 -2142060.094 23568491.636 -9521983.471 10 0 59579 10800.00000 0 -2248154.376 24563408.419 -6509892.946 10 0 59579 11700.00000 0 -2213564.967 25191041.417 -3371375.357 10 0 59579 12600.00000 0 -2088717.022 25426763.783 -167391.546 10 0 59579 13500.00000 0 -1927797.177 25258762.828 3039840.619 10 0 59579 14400.00000 0 -1786215.180 24688542.732 6188055.519 10 0 59579 15300.00000 0 -1718016.854 23730888.161 9216148.738 10 0 59579 16200.00000 0 -1773358.307 22413290.653 12065362.012 10 0 59579 17100.00000 0 -1996148.624 20774862.052 14680421.140 10 0 59579 18000.00000 0 -2421960.886 18864780.736 17010604.796 10 0 59579 18900.00000 0 -3076300.027 16740335.745 19010723.893 10 0 59579 19800.00000 0 -3973300.888 14464650.374 20641993.029 10 0 59579 20700.00000 0 -5114911.704 12104180.037 21872777.685 10 0 59579 21600.00000 0 -6490598.004 9726088.131 22679203.444 10 0 59579 22500.00000 0 -8077580.229 7395608.475 23045616.033 10 0 59579 23400.00000 0 -9841596.125 5173503.271 22964883.755 10 0 59579 24300.00000 0 -11738157.292 3113721.304 22438536.758 10 0 59579 25200.00000 0 -13714248.700 1261352.783 21476740.432 10 0 59579 26100.00000 0 -15710401.523 -349035.045 20098103.184 10 0 59579 27000.00000 0 -17663054.014 -1694613.153 18329321.807 10 0 59579 27900.00000 0 -19507102.938 -2765007.081 16204670.549 10 0 59579 28800.00000 0 -21178539.729 -3562485.145 13765343.013 10 0 59579 29700.00000 0 -22617061.693 -4101611.343 11058658.815 10 0 59579 30600.00000 0 -23768549.145 -4408378.144 8137149.622 10 0 59579 31500.00000 0 -24587304.497 -4518856.110 5057541.889 10 0 59579 32400.00000 0 -25037959.019 -4477417.882 1879655.724 10 0 59579 33300.00000 0 -25096966.584 -4334612.031 -1334758.699 10 0 59579 34200.00000 0 -24753620.916 -4144777.310 -4523224.219 10 0 59579 35100.00000 0 -24010552.883 -3963498.999 -7623755.380 10 0 59579 36000.00000 0 -22883686.234 -3845015.867 -10576068.413 10 0 59579 36900.00000 0 -21401653.138 -3839688.437 -13322758.238 10 0 59579 37800.00000 0 -19604693.682 -3991636.669 -15810418.970 10 0 59579 38700.00000 0 -17543085.270 -4336647.977 -17990685.708 10 0 59579 39600.00000 0 -15275167.714 -4900444.931 -19821176.957 10 0 59579 40500.00000 0 -12865046.628 -5697386.675 -21266319.347 10 0 59579 41400.00000 0 -10380071.123 -6729659.725 -22298038.719 10 0 59579 42300.00000 0 -7888191.099 -7986992.995 -22896304.379 10 0 59579 43200.00000 0 -5455304.130 -9446909.850 -23049516.343 10 0 59579 44100.00000 0 -3142702.138 -11075507.374 -22754728.371 10 0 59579 45000.00000 0 -1004723.722 -12828730.813 -22017702.783 10 0 59579 45900.00000 0 913290.859 -14654090.487 -20852796.207 10 0 59579 46800.00000 0 2576657.836 -16492749.786 -19282678.538 10 0 59579 47700.00000 0 3962553.121 -18281897.282 -17337890.598 10 0 59579 48600.00000 0 5060711.675 -19957303.977 -15056248.963 10 0 59579 49500.00000 0 5873595.216 -21455958.836 -12482109.380 10 0 59579 50400.00000 0 6416022.674 -22718672.215 -9665503.054 10 0 59579 51300.00000 0 6714280.436 -23692538.112 -6661162.547 10 0 59579 52200.00000 0 6804751.232 -24333151.895 -3527456.271 10 0 59579 53100.00000 0 6732120.747 -24606490.345 -325252.589 10 0 59579 54000.00000 0 6547238.828 -24490375.039 2883264.151 10 0 59579 54900.00000 0 6304726.652 -23975457.593 6035802.322 10 0 59579 55800.00000 0 6060431.778 -23065685.431 9071172.558 10 0 59579 56700.00000 0 5868839.333 -21778228.547 11930474.458 10 0 59579 57600.00000 0 5780549.172 -20142870.401 14558237.341 10 0 59579 58500.00000 0 5839925.908 -18200888.423 16903492.946 10 0 59579 59400.00000 0 6083021.189 -16003470.919 18920759.629 10 0 59579 60300.00000 0 6535856.004 -13609736.172 20570919.496 10 0 59579 61200.00000 0 7213135.593 -11084436.080 21821972.026 10 0 59579 62100.00000 0 8117451.298 -8495439.347 22649650.314 10 0 59579 63000.00000 0 9239003.472 -5911098.151 23037888.643 10 0 59579 63900.00000 0 10555857.716 -3397606.938 22979132.774 10 0 59579 64800.00000 0 12034724.691 -1016461.990 22474487.295 10 0 59579 65700.00000 0 13632231.943 1177873.757 21533697.163 10 0 59579 66600.00000 0 15296635.677 3140004.621 20174963.544 10 0 59579 67500.00000 0 16969902.061 4835251.249 18424597.012 10 0 59579 68400.00000 0 18590072.074 6240847.168 16316514.104 10 0 59579 69300.00000 0 20093811.714 7346633.655 13891586.179 10 0 59579 70200.00000 0 21419041.378 8155224.672 11196852.385 10 0 59579 71100.00000 0 22507534.433 8681635.650 8284611.251 10 0 59579 72000.00000 0 23307375.826 8952392.259 5211408.062 10 0 59579 72900.00000 0 23775177.097 9004157.304 2036937.380 10 0 59579 73800.00000 0 23877954.032 8881934.245 -1177117.979 10 0 59579 74700.00000 0 23594587.150 8636923.815 -4368288.597 10 0 59579 75600.00000 0 22916802.685 8324125.106 -7474536.902 10 0 59579 76500.00000 0 21849631.841 7999783.383 -10435468.133 10 0 59579 77400.00000 0 20411328.221 7718793.457 -13193509.481 10 0 59579 78300.00000 0 18632746.157 7532169.384 -15695033.917 10 0 59579 79200.00000 0 16556205.465 7484688.348 -17891406.350 10 0 59579 80100.00000 0 14233889.827 7612809.158 -19739931.415 10 0 59579 81000.00000 0 11725845.539 7942953.966 -21204684.397 10 0 59579 81900.00000 0 9097663.994 8490226.423 -22257209.250 10 0 59579 82800.00000 0 6417944.466 9257620.839 -22877070.344 10 0 59579 83700.00000 0 3755642.681 10235756.226 -23052247.611 10 0 59579 84600.00000 0 1177415.133 11403146.891 -22779367.754 10 0 59579 85500.00000 0 -1254930.702 12726998.693 -22063767.331 10 0 59580 0.00000 0 -3486774.759 14164497.839 -20919386.865 10 0 59580 900.00000 0 -5472716.053 15664539.334 -19368497.417 10 0 59580 1800.00000 0 -7178211.072 17169820.945 -17441266.582 10 0 59580 2700.00000 0 -8580755.805 18619217.648 -15175170.190 10 0 59580 3600.00000 0 -9670560.315 19950335.176 -12614262.453 10 0 59580 4500.00000 0 -10450690.327 21102136.265 -9808318.117 10 0 59580 5400.00000 0 -10936671.122 22017529.100 -6811863.362 10 0 59580 6300.00000 0 -11155571.937 22645809.103 -3683114.316 10 0 59580 7200.00000 0 -11144610.710 22944851.172 -482844.087 10 0 59580 8100.00000 0 -10949339.348 22882960.042 2726799.395 10 0 59580 9000.00000 0 -10621487.200 22440300.702 5883501.451 10 0 59580 9900.00000 0 -10216554.752 21609848.599 8925990.733 10 0 59580 10800.00000 0 -9791259.943 20397819.486 11795227.632 10 0 59580 11700.00000 0 -9400945.489 18823560.702 14435547.839 10 0 59580 12600.00000 0 -9097057.008 16918908.225 16795738.898 10 0 59580 13500.00000 0 -8924798.511 14727036.100 18830029.209 10 0 59580 14400.00000 0 -8921064.143 12300845.867 20498970.812 10 0 59580 15300.00000 0 -9112733.266 9700962.704 21770199.402 10 0 59580 16200.00000 0 -9515400.643 6993420.996 22619057.557 10 0 59580 17100.00000 0 -10132595.261 4247134.706 23029069.786 10 0 59580 18000.00000 0 -10955520.883 1531256.763 22992260.629 10 0 59580 18900.00000 0 -11963329.764 -1087464.013 22509310.024 10 0 59580 19800.00000 0 -13123918.803 -3547219.899 21589542.928 10 0 59580 20700.00000 0 -14395215.597 -5793470.824 20250753.172 10 0 59580 21600.00000 0 -15726901.526 -7780964.963 18518864.484 10 0 59580 22500.00000 0 -17062500.578 -9475370.291 16427434.493 10 0 59580 23400.00000 0 -18341747.149 -10854449.886 14017010.568 10 0 59580 24300.00000 0 -19503134.082 -11908732.768 11334349.160 10 0 59580 25200.00000 0 -20486534.317 -12641652.829 8431512.983 10 0 59580 26100.00000 0 -21235785.899 -13069150.615 5364863.119 10 0 59580 27000.00000 0 -21701131.358 -13218755.291 2193965.280 10 0 59580 27900.00000 0 -21841408.105 -13128186.004 -1019568.575 10 0 59580 28800.00000 0 -21625896.764 -12843532.222 -4213280.388 10 0 59580 29700.00000 0 -21035748.570 -12417090.590 -7325084.155 10 0 59580 30600.00000 0 -20064930.618 -11904950.430 -10294477.791 10 0 59580 31500.00000 0 -18720648.126 -11364430.760 -13063724.353 10 0 59580 32400.00000 0 -17023224.950 -10851478.011 -15578979.085 10 0 59580 33300.00000 0 -15005446.483 -10418135.201 -17791339.864 10 0 59580 34200.00000 0 -12711391.808 -10110190.216 -19657800.229 10 0 59580 35100.00000 0 -10194803.407 -9965103.079 -21142086.422 10 0 59580 36000.00000 0 -7517062.037 -10010300.131 -22215362.233 10 0 59580 36900.00000 0 -4744850.980 -10261907.421 -22856788.198 10 0 59580 37800.00000 0 -1947606.526 -10723976.888 -23053924.621 10 0 59580 38700.00000 0 805139.608 -11388238.143 -22802970.987 10 0 59580 39600.00000 0 3446415.838 -12234386.461 -22108837.363 10 0 59580 40500.00000 0 5914354.473 -13230894.999 -20985046.707 10 0 59580 41400.00000 0 8154518.687 -14336317.294 -19453470.002 10 0 59580 42300.00000 0 10121916.646 -15501025.380 -17543899.425 10 0 59580 43200.00000 0 11782620.046 -16669310.574 -15293467.724 10 0 59580 44100.00000 0 13114920.669 -17781758.653 -12745924.939 10 0 59580 45000.00000 0 14109977.905 -18777799.448 -9950786.493 10 0 59580 45900.00000 0 14771931.547 -19598323.489 -6962369.118 10 0 59580 46800.00000 0 15117476.525 -20188255.324 -3838733.465 10 0 59580 47700.00000 0 15174918.834 -20498974.920 -640554.135 10 0 59580 48600.00000 0 14982753.765 -20490484.841 2570060.574 10 0 59580 49500.00000 0 14587827.526 -20133231.629 5730776.026 10 0 59580 50400.00000 0 14043160.871 -19409504.378 8780241.787 10 0 59580 51300.00000 0 13405527.399 -18314351.316 11659281.665 10 0 59580 52200.00000 0 12732889.333 -16855975.515 14312040.029 10 0 59580 53100.00000 0 12081799.335 -15055592.701 16687062.185 10 0 59580 54000.00000 0 11504878.054 -12946756.663 18738288.176 10 0 59580 54900.00000 0 11048473.658 -10574179.814 20425941.220 10 0 59580 55800.00000 0 10750601.694 -7992097.512 21717294.119 10 0 59580 56700.00000 0 10639251.718 -5262243.398 22587299.510 10 0 59580 57600.00000 0 10731131.672 -2451519.020 23019072.392 10 0 59580 58500.00000 0 11030902.637 370546.478 23004216.070 10 0 59580 59400.00000 0 11530936.201 3134442.285 22542985.557 10 0 59580 60300.00000 0 12211604.894 5773318.899 21644285.303 10 0 59580 61200.00000 0 13042093.996 8225519.524 20325501.090 10 0 59580 62100.00000 0 13981701.298 10436895.894 18612168.862 10 0 59580 63000.00000 0 14981570.975 12362813.255 16537486.201 10 0 59580 63900.00000 0 15986789.455 13969761.792 14141675.142 10 0 59580 64800.00000 0 16938755.747 15236508.082 11471207.845 10 0 59580 65700.00000 0 17777726.943 16154739.051 8577909.384 10 0 59580 66600.00000 0 18445431.765 16729171.933 5517954.566 10 0 59580 67500.00000 0 18887641.859 16977126.153 2350777.940 10 0 59580 68400.00000 0 19056591.898 16927575.597 -862081.893 10 0 59580 69300.00000 0 18913145.613 16619721.690 -4058180.880 10 0 59580 70200.00000 0 18428615.395 16101148.060 -7175387.283 10 0 59580 71100.00000 0 17586157.549 15425635.314 -10153094.366 10 0 59580 72000.00000 0 16381683.224 14650728.923 -12933403.628 10 0 59580 72900.00000 0 14824245.454 13835163.664 -15462255.016 10 0 59580 73800.00000 0 12935884.890 13036254.082 -17690481.614 10 0 59580 74700.00000 0 10750939.745 12307361.758 -19574767.916 10 0 59580 75600.00000 0 8314847.959 11695546.734 -21078492.969 10 0 59580 76500.00000 0 5682490.923 11239502.455 -22172442.066 10 0 59580 77400.00000 0 2916147.335 10967861.421 -22835373.368 10 0 59580 78300.00000 0 83141.890 10897942.937 -23054428.785 10 0 59580 79200.00000 0 -2746713.862 11034995.567 -22825381.518 10 0 59580 80100.00000 0 -5503782.506 11371966.023 -22152715.736 10 0 59580 81000.00000 0 -8121253.612 11889804.017 -21049537.118 10 0 59580 81900.00000 0 -10537678.820 12558290.038 -19537316.084 10 0 59580 82800.00000 0 -12699284.425 13337351.085 -17645468.732 10 0 59580 83700.00000 0 -14561966.079 14178808.765 -15410783.544 10 0 59580 84600.00000 0 -16092883.493 15028486.030 -12876704.832 10 0 59580 85500.00000 0 -17271589.554 15828583.583 -10092486.813 99